Lancaster, OH

10:08 AM EDT on April 21, 2018 (GMT -0400)
Fairfield County

Weather History for KLHQ - August, 2013

Change the Weather History Date:

Friday, August 9, 2013

  Actual Average Record
Temperature  
Mean Temperature 72 °F -  
Max Temperature 79 °F 83 °F 97 °F (2007)
Min Temperature 63 °F 60 °F 47 °F (1989)
Cooling Degree Days 6    
Growing Degree Days 22 (Base 50)    
Moisture  
Dew Point 69 °F    
Average Humidity 90    
Maximum Humidity 97    
Minimum Humidity 61    
Precipitation  
Precipitation 0.65 in - - ()
Sea Level Pressure  
Sea Level Pressure 29.96 in    
Wind  
Wind Speed 2 mph (WNW)    
Max Wind Speed 9 mph    
Max Gust Speed -    
Visibility 6 miles    
Events Rain , Thunderstorm    
Averages and records for this station are not official NWS values.
T = Trace of Precipitation, MM = Missing Value Source: NWS Daily Summary

Daily Weather History Graph

Daily Weather History Graph

Search for Another Location

Airport or City:

Astronomy

Aug. 09, 2013 Rise Set
Actual Time 6:37 AM EDT 8:34 PM EDT
Civil Twilight 6:07 AM EDT 9:03 PM EDT
Nautical Twilight 5:31 AM EDT 9:39 PM EDT
Astronomical Twilight 4:53 AM EDT 10:17 PM EDT
Moon 9:21 AM EDT (8/9) 9:43 PM EDT (8/9)
Length of Visible Light 14h 55m
Length of Day
13h 57m
Waxing Crescent, 7% of the Moon is Illuminated
Aug 9
Waxing Crescent
Aug 14
First Quarter
Aug 20
Full
Aug 28
Last Quarter
Sep 5
New

Hourly Weather History & Observations

Time (EDT) Temp. Dew Point Humidity Pressure Visibility Wind Dir Wind Speed Gust Speed Precip Events Conditions
12:53 AM 71.1 °F 70.0 °F 96% 29.93 in 5.0 mi Calm Calm - N/A   Overcast
1:53 AM 71.1 °F 70.0 °F 96% 29.91 in 4.0 mi Calm Calm - 0.01 in Rain Light Rain
2:13 AM 71.6 °F 69.8 °F 94% 29.94 in 4.0 mi Calm Calm - 0.00 in Rain Light Rain
2:20 AM 71.6 °F 69.8 °F 94% 29.94 in 4.0 mi Calm Calm - 0.00 in Rain , Thunderstorm Light Rain
2:29 AM 71.6 °F 69.8 °F 94% 29.94 in 2.0 mi Calm Calm - 0.04 in Rain , Thunderstorm Heavy Thunderstorms and Rain
2:32 AM 71.6 °F 69.8 °F 94% 29.94 in 1.5 mi Calm Calm - 0.06 in Rain , Thunderstorm Heavy Thunderstorms and Rain
2:37 AM 71.6 °F 69.8 °F 94% 29.94 in 0.8 mi Calm Calm - 0.17 in Rain , Thunderstorm Heavy Thunderstorms and Rain
2:44 AM 71.6 °F 69.8 °F 94% 29.94 in 0.8 mi Calm Calm - 0.25 in Rain Heavy Rain
2:48 AM 71.6 °F 69.8 °F 94% 29.95 in 1.2 mi WSW 4.6 mph - 0.27 in Rain , Thunderstorm Heavy Rain
2:53 AM 71.1 °F 70.0 °F 96% 29.92 in 1.8 mi WSW 4.6 mph - 0.29 in Rain , Thunderstorm Rain
3:01 AM 71.6 °F 69.8 °F 94% 29.95 in 1.0 mi WSW 4.6 mph - 0.12 in Rain Heavy Rain
3:05 AM 71.6 °F 69.8 °F 94% 29.94 in 0.8 mi Calm Calm - 0.22 in Rain Heavy Rain
3:13 AM 71.6 °F 69.8 °F 94% 29.93 in 1.2 mi NW 3.5 mph - 0.26 in Rain Rain
3:18 AM 71.6 °F 69.8 °F 94% 29.93 in 2.5 mi Calm Calm - 0.27 in Rain Rain
3:29 AM 71.6 °F 69.8 °F 94% 29.93 in 4.0 mi Calm Calm - 0.28 in Rain Light Rain
3:53 AM 71.1 °F 70.0 °F 96% 29.90 in 3.0 mi Calm Calm - 0.30 in Rain Light Rain
4:03 AM 71.6 °F 69.8 °F 94% 29.93 in 4.0 mi Calm Calm - 0.00 in   Mostly Cloudy
4:16 AM 71.6 °F 69.8 °F 94% 29.92 in 2.5 mi Calm Calm - 0.00 in   Mostly Cloudy
4:29 AM 71.6 °F 69.8 °F 94% 29.92 in 2.5 mi Calm Calm - 0.00 in   Mostly Cloudy
4:44 AM 71.6 °F 69.8 °F 94% 29.92 in 4.0 mi Calm Calm - 0.00 in   Mostly Cloudy
4:53 AM 71.1 °F 70.0 °F 96% 29.90 in 4.0 mi Calm Calm - 0.00 in   Mostly Cloudy
5:53 AM 71.1 °F 70.0 °F 96% 29.91 in 8.0 mi Calm Calm - 0.00 in   Mostly Cloudy
6:08 AM 71.6 °F 69.8 °F 94% 29.93 in 10.0 mi Calm Calm - N/A   Overcast
6:41 AM 71.6 °F 69.8 °F 94% 29.93 in 7.0 mi Calm Calm - N/A   Mostly Cloudy
6:50 AM 71.6 °F 69.8 °F 94% 29.94 in 7.0 mi Calm Calm - N/A   Mostly Cloudy
6:53 AM 71.1 °F 70.0 °F 96% 29.92 in 7.0 mi Calm Calm - N/A   Overcast
7:53 AM 72.0 °F 70.0 °F 93% 29.94 in 10.0 mi Calm Calm - N/A   Overcast
8:16 AM 71.6 °F 69.8 °F 94% 29.96 in 8.0 mi West 3.5 mph - N/A   Overcast
8:39 AM 71.6 °F 69.8 °F 94% 29.96 in 1.8 mi SW 5.8 mph - N/A   Overcast
8:44 AM 71.6 °F 69.8 °F 94% 29.96 in 0.8 mi SW 4.6 mph - N/A   Overcast
8:53 AM 71.1 °F 70.0 °F 96% 29.95 in 1.5 mi WSW 4.6 mph - N/A   Overcast
8:55 AM 71.6 °F 69.8 °F 94% 29.97 in 2.5 mi WSW 4.6 mph - N/A   Overcast
9:02 AM 71.6 °F 69.8 °F 94% 29.97 in 8.0 mi WSW 5.8 mph - N/A   Overcast
9:09 AM 71.6 °F 69.8 °F 94% 29.97 in 10.0 mi SW 5.8 mph - N/A   Overcast
9:24 AM 73.4 °F 71.6 °F 94% 29.97 in 10.0 mi WSW 5.8 mph - N/A   Overcast
9:53 AM 73.0 °F 70.0 °F 90% 29.95 in 10.0 mi WSW 8.1 mph - N/A   Overcast
10:39 AM 71.6 °F 69.8 °F 94% 29.98 in 6.0 mi WSW 6.9 mph - N/A   Overcast
10:53 AM 73.0 °F 70.0 °F 90% 29.96 in 7.0 mi WSW 4.6 mph - N/A   Overcast
11:01 AM 73.4 °F 71.6 °F 94% 29.98 in 8.0 mi SW 6.9 mph - N/A   Overcast
11:09 AM 73.4 °F 71.6 °F 94% 29.98 in 9.0 mi SW 5.8 mph - N/A   Overcast
11:21 AM 73.4 °F 69.8 °F 88% 29.98 in 9.0 mi SW 8.1 mph - N/A   Overcast
11:34 AM 73.4 °F 69.8 °F 88% 29.98 in 6.0 mi WSW 9.2 mph - N/A   Overcast
11:45 AM 71.6 °F 69.8 °F 94% 29.99 in 5.0 mi NNW 9.2 mph - N/A   Overcast
11:53 AM 70.0 °F 68.0 °F 93% 29.98 in 3.0 mi NW 8.1 mph - 0.00 in Rain Light Rain
11:58 AM 69.8 °F 68.0 °F 94% 30.00 in 2.0 mi NNW 8.1 mph - 0.01 in Rain Light Rain
12:04 PM 69.8 °F 68.0 °F 94% 30.00 in 1.0 mi NW 6.9 mph - 0.03 in Rain Heavy Rain
12:15 PM 69.8 °F 68.0 °F 94% 30.00 in 1.5 mi NW 5.8 mph - 0.05 in Rain Rain
12:23 PM 69.8 °F 68.0 °F 94% 30.00 in 2.5 mi NNW 8.1 mph - 0.05 in Rain Light Rain
12:31 PM 69.8 °F 68.0 °F 94% 30.00 in 4.0 mi NNW 6.9 mph - 0.05 in   Overcast
12:53 PM 71.1 °F 69.1 °F 93% 29.98 in 10.0 mi North 4.6 mph - 0.05 in   Overcast
1:20 PM 71.6 °F 69.8 °F 94% 29.99 in 10.0 mi North 3.5 mph - N/A   Overcast
1:53 PM 73.0 °F 69.1 °F 87% 29.99 in 10.0 mi NNW 3.5 mph - N/A   Overcast
2:09 PM 73.4 °F 69.8 °F 88% 30.00 in 10.0 mi WNW 3.5 mph - N/A   Overcast
2:32 PM 73.4 °F 69.8 °F 88% 30.00 in 10.0 mi NW 4.6 mph - N/A   Overcast
2:41 PM 73.4 °F 69.8 °F 88% 30.00 in 10.0 mi WNW 3.5 mph - N/A   Overcast
2:53 PM 75.0 °F 69.1 °F 82% 29.98 in 10.0 mi Variable 4.6 mph - N/A   Overcast
3:11 PM 75.2 °F 69.8 °F 83% 29.99 in 10.0 mi NNW 5.8 mph - N/A   Overcast
3:36 PM 75.2 °F 69.8 °F 83% 29.99 in 10.0 mi NNW 8.1 mph - N/A   Overcast
3:45 PM 75.2 °F 68.0 °F 78% 29.99 in 10.0 mi NW 6.9 mph - N/A   Overcast
3:53 PM 75.9 °F 69.1 °F 79% 29.97 in 10.0 mi NNW 3.5 mph - N/A   Overcast
4:18 PM 77.0 °F 69.8 °F 78% 29.99 in 10.0 mi NW 5.8 mph - N/A   Overcast
4:42 PM 78.8 °F 66.2 °F 65% 29.99 in 10.0 mi NNW 6.9 mph - N/A   Mostly Cloudy
4:53 PM 79.0 °F 66.9 °F 66% 29.97 in 10.0 mi North 9.2 mph - N/A   Partly Cloudy
5:53 PM 78.1 °F 64.9 °F 64% 29.97 in 10.0 mi Variable 4.6 mph - N/A   Clear
6:19 PM 78.8 °F 64.4 °F 61% 29.99 in 10.0 mi North 4.6 mph - N/A   Partly Cloudy
6:53 PM 75.9 °F 66.9 °F 74% 29.97 in 10.0 mi Calm Calm - N/A   Clear
7:53 PM 73.0 °F 68.0 °F 84% 29.98 in 10.0 mi Calm Calm - N/A   Clear
8:53 PM 66.9 °F 64.9 °F 93% 30.00 in 10.0 mi Calm Calm - N/A   Clear
9:53 PM 66.9 °F 64.9 °F 93% 30.02 in 10.0 mi Calm Calm - N/A   Clear
10:53 PM 64.0 °F 63.0 °F 96% 30.04 in 7.0 mi Calm Calm - N/A   Clear
11:53 PM 63.0 °F 62.1 °F 97% 30.04 in 8.0 mi Calm Calm - N/A   Clear